Miscellaneous Local Product
Issued by NWS North Platte, NE

Home | Current Version | Previous Version | Text Only | Print | Product List | Glossary On
Versions: 1 2 3 4 5 6 7 8 9 10 11 12 13 14 15 16 17 18 19 20 21 22 23 24 25 26 27 28 29 30 31 32 33 34 35 36 37 38 39 40 41 42 43 44 45 46 47 48 49 50
000
AXUS43 KLBF 280010
MISLBF


WESTERN AND NORTH CENTRAL NEBRASKA HOURLY WEATHER ROUNDUP
NATIONAL WEATHER SERVICE NORTH PLATTE NE
700 PM CDT TUE JUN 27 2017

NOTE: "FAIR" INDICATES FEW OR NO CLOUDS BELOW 12,000 FEET WITH NO
SIGNIFICANT WEATHER AND/OR OBSTRUCTIONS TO VISIBILITY.

NOTE: STATIONS NOT REPORTING VARIABLES SUCH AS SKY/WEATHER OR
PRESSURE ARE PROVIDED BY RAWS AND APRS NETWORKS AND ARE NOT UNDER
NATIONAL WEATHER SERVICE QUALITY CONTROL.

...OBSERVATIONS IN AND NEAR THE EASTERN PANHANDLE OF NEBRASKA...

CITY           SKY/WX    TMP DP  RH WIND       PRES   REMARKS
PINE RIDGE     LGT RAIN  68  57  68 N25G37    29.66R
GORDON         MOCLDY    76  49  38 S6G13     29.66F
CHADRON        CLOUDY    67  60  78 SW12      29.67F
ALLIANCE       CLOUDY    79  54  41 NE9       29.70R
SIDNEY         CLOUDY    72  57  59 E8        29.72R
$$

...OBSERVATIONS IN NORTHERN NEBRASKA AND FAR SOUTHERN SOUTH DAKOTA...

CITY           SKY/WX    TMP DP  RH WIND       PRES   REMARKS
WINNER         FAIR      88  63  43 S25G36    29.58F
VALENTINE      CLOUDY    83  57  41 S21G31    29.66R
THEDFORD       CLOUDY    82  64  54 S14G20    29.69F
AINSWORTH      PTSUNNY   81  64  55 S20G31    29.63F
O`NEILL        MOSUNNY   82  66  57 S24       29.68F
ORD            SUNNY     83  64  52 SE20G29   29.68F
BROKEN BOW     MOSUNNY   85  66  53 SE16G25   29.67F
VALENTINE NWR    N/A     80  60  49 S21G30      N/A
HALSEY           N/A     82  63  52 S9G20       N/A
BUTTE            N/A     81  65  58 S24G37      N/A
CHAMBERS         N/A     81  65  58 W3G12       N/A
EWING            N/A     80  67  64 S12G21      N/A
$$

...OBSERVATIONS IN SOUTHWEST NEBRASKA AND FAR NORTHEAST COLORADO...

CITY           SKY/WX    TMP DP  RH WIND       PRES   REMARKS
WRAY           FAIR      88  39  18 SW16G22   29.69S
IMPERIAL       CLOUDY    90  37  15 S13       29.63F
OGALLALA       CLOUDY    86  60  41 N8        29.67R
NORTH PLATTE   CLOUDY    87  65  47 E13       29.62F
MCCOOK         MOSUNNY   93  55  27 S28G39    29.61F HX  91
LEXINGTON      PTSUNNY   91  58  32 SE16G23   29.64F HX  90
STAPLETON        N/A     83  67  58 CALM        N/A
GOTHENBURG       N/A     86  63  46 SE9         N/A
CALLAWAY         N/A     84  69  59 S20         N/A
$$

...OBSERVATIONS IN CENTRAL LINCOLN COUNTY AREA...

CITY           SKY/WX    TMP DP  RH WIND       PRES   REMARKS
N.P. AIRPORT   CLOUDY    87  65  47 E13       29.62F
N.P. DOWNTOWN    N/A     88  60  39 CALM        N/A
N.P. SOUTHEAST   N/A     89  59  36 E5          N/A
N.P. HILLCREST   N/A     87  64  46 SE12        N/A
$$

...SOME OBSERVATIONS FROM AROUND THE REGION...

CITY           SKY/WX    TMP DP  RH WIND       PRES   REMARKS
DENVER         PTSUNNY   92  25   9 NW9G24    29.78F
LIMON          LGT RAIN  83  39  21 NW3       29.82F
ASPEN          MOSUNNY   78  21  12 NW9G22    30.08F
LARAMIE        LGT RAIN  66  34  30 MISG      30.01F
CASPER         MOSUNNY   67  45  45 NW14G22   29.91S
CHEYENNE       MOSUNNY   82  35  18 NW15G25   29.89R
SCOTTSBLUFF    MOSUNNY   87  51  28 NE6       29.68S
GRAND ISLAND   SUNNY     82  69  64 SE21G29   29.73F
OMAHA          PTSUNNY   79  63  57 S22G32    29.81F
SIOUX FALLS    CLOUDY    77  59  53 S20G30    29.72F
PIERRE         CLOUDY    91  59  33 S18       29.50F HX  90
RAPID CITY     TSTM      63  56  78 W21G29    29.74
BISMARCK       PTSUNNY   85  62  46 SE13      29.49F
KANSAS CITY    MOSUNNY   78  67  68 S10       29.91F
HILL CITY      CLOUDY    92  57  30 S16G22    29.69F HX  90
WICHITA        MOSUNNY   88  68  51 S20G29    29.83F HX  91
DODGE CITY     CLOUDY    91  57  31 S24G35    29.77F
OKLAHOMA CITY  MOSUNNY   89  63  41 SE18G24   29.89F HX  90
DALLAS         PTSUNNY   77  72  84 SE5       29.90F
$$




USA.gov is the U.S. government's official web portal to all federal, state and local government web resources and services.